• In Hungary
  • List of Countries
  • For 7 days
  • Water Temperature
  • Satellite Maps
  • Weather Map
  • News
  • Weather Widgets
  • user-avatar
    Login

    Hourly Weather Santa Isabel

    Today, 19 June, Tuesday

    Time Temperature Precipitation Wind Pressure Humidity
    00:00 +27°C° 0 mm 3 mps 755 mmHg 85%
    01:00 +26°C° 0 mm 3 mps 755 mmHg 85%
    02:00 +26°C° 0 mm 2 mps 755 mmHg 85%
    03:00 +26°C° 0 mm 2 mps 754 mmHg 85%
    04:00 +26°C° 0 mm 3 mps 754 mmHg 86%
    05:00 +26°C° 0 mm 3 mps 754 mmHg 86%
    06:00 +27°C° 0 mm 3 mps 754 mmHg 81%
    07:00 +28°C° 0 mm 3 mps 754 mmHg 77%
    08:00 +30°C° 0 mm 3 mps 755 mmHg 72%
    09:00 +32°C° 0.2 mm 4 mps 755 mmHg 68%
    10:00 +33°C° 0.2 mm 4 mps 755 mmHg 64%
    11:00 +34°C° 0.2 mm 4 mps 755 mmHg 59%
    12:00 +34°C° 0.4 mm 4 mps 755 mmHg 60%
    13:00 +33°C° 0.4 mm 4 mps 755 mmHg 61%
    14:00 +33°C° 0.4 mm 5 mps 755 mmHg 62%
    15:00 +33°C° 0.3 mm 4 mps 755 mmHg 65%
    16:00 +32°C° 0.3 mm 4 mps 754 mmHg 69%
    17:00 +30°C° 0.3 mm 4 mps 754 mmHg 72%
    18:00 +29°C° 0.3 mm 4 mps 754 mmHg 76%
    19:00 +28°C° 0.3 mm 4 mps 754 mmHg 81%
    20:00 +27°C° 0.3 mm 4 mps 754 mmHg 85%
    21:00 +27°C° 0.1 mm 4 mps 755 mmHg 85%
    22:00 +27°C° 0.1 mm 4 mps 755 mmHg 85%
    23:00 +27°C° 0.1 mm 3 mps 755 mmHg 85%

    Tomorrow, 20 June, Wednesday

    Time Temperature Precipitation Wind Pressure Humidity
    00:00 +27°C° 0.1 mm 3 mps 755 mmHg 85%
    01:00 +27°C° 0.1 mm 3 mps 754 mmHg 86%
    02:00 +26°C° 0.1 mm 3 mps 754 mmHg 86%
    03:00 +26°C° 0.3 mm 3 mps 754 mmHg 86%
    04:00 +26°C° 0.3 mm 4 mps 754 mmHg 86%
    05:00 +26°C° 0.3 mm 4 mps 754 mmHg 86%
    06:00 +27°C° 0.2 mm 4 mps 754 mmHg 81%
    07:00 +28°C° 0.2 mm 4 mps 754 mmHg 76%
    08:00 +29°C° 0.2 mm 4 mps 755 mmHg 71%
    09:00 +30°C° 0.4 mm 4 mps 755 mmHg 67%
    10:00 +32°C° 0.4 mm 4 mps 755 mmHg 63%
    11:00 +33°C° 0.4 mm 5 mps 755 mmHg 59%
    12:00 +33°C° 0.8 mm 5 mps 755 mmHg 59%
    13:00 +33°C° 0.8 mm 5 mps 755 mmHg 60%
    14:00 +33°C° 0.8 mm 5 mps 755 mmHg 60%
    15:00 +33°C° 1 mm 4 mps 755 mmHg 62%
    16:00 +32°C° 1 mm 4 mps 754 mmHg 64%
    17:00 +32°C° 1 mm 4 mps 754 mmHg 67%
    18:00 +29°C° 0.8 mm 4 mps 755 mmHg 73%
    19:00 +28°C° 0.8 mm 4 mps 755 mmHg 79%
    20:00 +27°C° 0.8 mm 4 mps 755 mmHg 84%
    21:00 +27°C° 0 mm 4 mps 756 mmHg 85%
    22:00 +27°C° 0 mm 4 mps 756 mmHg 85%
    23:00 +27°C° 0 mm 4 mps 756 mmHg 85%

    Day after tomorrow, 21 June, Thursday

    Time Temperature Precipitation Wind Pressure Humidity
    00:00 +27°C° 0 mm 4 mps 756 mmHg 85%
    01:00 +27°C° 0 mm 4 mps 755 mmHg 85%
    02:00 +27°C° 0 mm 4 mps 755 mmHg 85%
    03:00 +26°C° 0 mm 4 mps 755 mmHg 85%
    04:00 +26°C° 0 mm 4 mps 755 mmHg 85%
    05:00 +26°C° 0 mm 4 mps 755 mmHg 85%
    06:00 +27°C° 0 mm 4 mps 755 mmHg 82%
    07:00 +28°C° 0 mm 4 mps 755 mmHg 78%
    08:00 +29°C° 0 mm 5 mps 756 mmHg 74%
    09:00 +30°C° 0 mm 5 mps 756 mmHg 70%
    10:00 +30°C° 0 mm 5 mps 756 mmHg 67%
    11:00 +32°C° 0 mm 5 mps 757 mmHg 63%
    12:00 +32°C° 0 mm 5 mps 756 mmHg 62%
    13:00 +32°C° 0 mm 5 mps 756 mmHg 62%
    14:00 +32°C° 0 mm 5 mps 756 mmHg 61%
    15:00 +32°C° 0 mm 5 mps 755 mmHg 63%
    16:00 +30°C° 0 mm 5 mps 755 mmHg 65%
    17:00 +30°C° 0 mm 5 mps 755 mmHg 67%
    18:00 +29°C° 0 mm 5 mps 755 mmHg 70%
    19:00 +28°C° 0 mm 5 mps 755 mmHg 74%
    20:00 +27°C° 0 mm 5 mps 756 mmHg 77%
    21:00 +27°C° 0 mm 5 mps 756 mmHg 78%
    22:00 +27°C° 0 mm 5 mps 756 mmHg 79%
    23:00 +27°C° 0 mm 5 mps 756 mmHg 80%

    22 June, Friday

    Time Temperature Precipitation Wind Pressure Humidity
    00:00 +26°C° 0 mm 4 mps 756 mmHg 81%
    01:00 +26°C° 0 mm 4 mps 756 mmHg 83%
    02:00 +26°C° 0 mm 4 mps 755 mmHg 84%
    03:00 +26°C° 0 mm 4 mps 755 mmHg 85%
    04:00 +26°C° 0 mm 4 mps 755 mmHg 86%
    05:00 +26°C° 0 mm 4 mps 755 mmHg 87%
    06:00 +27°C° 0.1 mm 4 mps 755 mmHg 82%
    07:00 +28°C° 0.1 mm 5 mps 756 mmHg 78%
    08:00 +29°C° 0.1 mm 5 mps 756 mmHg 74%
    09:00 +30°C° 0.4 mm 5 mps 756 mmHg 71%
    10:00 +32°C° 0.4 mm 5 mps 756 mmHg 67%
    11:00 +32°C° 0.4 mm 5 mps 756 mmHg 64%
    12:00 +33°C° 0.6 mm 5 mps 756 mmHg 64%
    13:00 +33°C° 0.6 mm 5 mps 756 mmHg 63%
    14:00 +33°C° 0.6 mm 5 mps 755 mmHg 63%
    15:00 +32°C° 0.8 mm 5 mps 755 mmHg 64%
    16:00 +32°C° 0.8 mm 5 mps 755 mmHg 66%
    17:00 +30°C° 0.8 mm 5 mps 755 mmHg 68%
    18:00 +29°C° 0.6 mm 5 mps 755 mmHg 72%
    19:00 +28°C° 0.6 mm 5 mps 755 mmHg 75%
    20:00 +27°C° 0.6 mm 5 mps 756 mmHg 79%
    21:00 +27°C° 0.4 mm 5 mps 756 mmHg 79%
    22:00 +27°C° 0.4 mm 5 mps 756 mmHg 79%
    23:00 +27°C° 0.4 mm 5 mps 756 mmHg 80%

    23 June, Saturday

    Time Temperature Precipitation Wind Pressure Humidity
    00:00 +27°C° 0.5 mm 5 mps 756 mmHg 81%
    01:00 +27°C° 0.5 mm 5 mps 755 mmHg 82%
    02:00 +27°C° 0.5 mm 4 mps 755 mmHg 83%
    03:00 +26°C° 0.1 mm 4 mps 755 mmHg 84%
    04:00 +26°C° 0.1 mm 4 mps 755 mmHg 85%
    05:00 +26°C° 0.1 mm 4 mps 755 mmHg 86%
    06:00 +27°C° 0 mm 4 mps 755 mmHg 81%
    07:00 +28°C° 0 mm 5 mps 756 mmHg 77%
    08:00 +29°C° 0 mm 5 mps 756 mmHg 72%
    09:00 +30°C° 0 mm 6 mps 756 mmHg 67%
    10:00 +32°C° 0 mm 6 mps 756 mmHg 63%
    11:00 +33°C° 0 mm 6 mps 756 mmHg 58%
    12:00 +33°C° 0.2 mm 6 mps 756 mmHg 59%
    13:00 +33°C° 0.2 mm 7 mps 756 mmHg 60%
    14:00 +33°C° 0.2 mm 7 mps 755 mmHg 60%
    15:00 +32°C° 0.1 mm 6 mps 755 mmHg 63%
    16:00 +32°C° 0.1 mm 6 mps 755 mmHg 65%
    17:00 +30°C° 0.1 mm 6 mps 755 mmHg 67%
    18:00 +29°C° 0.1 mm 6 mps 755 mmHg 72%
    19:00 +28°C° 0.1 mm 5 mps 755 mmHg 76%
    20:00 +27°C° 0.1 mm 5 mps 755 mmHg 81%
    21:00 +27°C° 0.4 mm 5 mps 756 mmHg 82%
    22:00 +27°C° 0.4 mm 5 mps 756 mmHg 82%
    23:00 +27°C° 0.4 mm 5 mps 756 mmHg 83%

    24 June, Sunday

    Time Temperature Precipitation Wind Pressure Humidity
    00:00 +27°C° 0.1 mm 5 mps 756 mmHg 82%
    01:00 +27°C° 0.1 mm 5 mps 755 mmHg 82%
    02:00 +27°C° 0.1 mm 5 mps 755 mmHg 82%
    03:00 +27°C° 0.3 mm 5 mps 755 mmHg 82%
    04:00 +27°C° 0.3 mm 5 mps 755 mmHg 82%
    05:00 +27°C° 0.3 mm 5 mps 755 mmHg 82%
    06:00 +28°C° 0.4 mm 6 mps 756 mmHg 80%
    07:00 +28°C° 0.4 mm 6 mps 756 mmHg 77%
    08:00 +29°C° 0.4 mm 6 mps 756 mmHg 75%
    09:00 +30°C° 0.4 mm 7 mps 756 mmHg 71%
    10:00 +30°C° 0.4 mm 7 mps 756 mmHg 67%
    11:00 +32°C° 0.4 mm 7 mps 757 mmHg 63%
    12:00 +32°C° 0.5 mm 7 mps 756 mmHg 64%
    13:00 +32°C° 0.5 mm 7 mps 756 mmHg 65%
    14:00 +32°C° 0.5 mm 7 mps 756 mmHg 66%
    15:00 +32°C° 0.1 mm 7 mps 756 mmHg 66%
    16:00 +32°C° 0.1 mm 6 mps 755 mmHg 67%
    17:00 +30°C° 0.1 mm 6 mps 755 mmHg 68%
    18:00 +30°C° 0 mm 6 mps 755 mmHg 72%
    19:00 +29°C° 0 mm 6 mps 756 mmHg 76%
    20:00 +28°C° 0 mm 5 mps 756 mmHg 80%
    21:00 +28°C° 0 mm 5 mps 756 mmHg 81%
    22:00 +27°C° 0 mm 5 mps 756 mmHg 82%
    23:00 +27°C° 0 mm 6 mps 756 mmHg 83%
    Show more